DateTime,Index
1990110600,0.0
1990110606,0.0
1990110612,0.0
1990110618,0.0
1990110700,0.0
1990110706,0.0
1990110712,0.0
1990110718,0.0
1990110800,1225.0
1990110806,1600.0
1990110812,2025.0
1990110818,3025.0
1990110900,4900.0
1990110906,6400.0
1990110912,8100.0
1990110918,10000.0
1990111000,12100.0
1990111006,14400.0
1990111012,18225.0
1990111018,22500.0
1990111100,22500.0
1990111106,22500.0
1990111112,22500.0
1990111118,21025.0
1990111200,19600.0
1990111206,18225.0
1990111212,16900.0
1990111218,14400.0
1990111300,11025.0
1990111306,9025.0
1990111312,7225.0
1990111318,6400.0
1990111400,5625.0
1990111406,6400.0
1990111412,7225.0
1990111418,7225.0
1990111500,7225.0
1990111506,7225.0
1990111512,6400.0
1990111518,5625.0
1990111600,4900.0
1990111606,4225.0
1990111612,3025.0
1990111618,2025.0
1990111700,1225.0
1990111706,1225.0
1990111712,0.0
1990111718,0.0
1990111800,0.0
1990111806,0.0
1990111812,0.0
